sat.trackr.live / text

‹ back to catalog

STARLINK-6312

NORAD 56536 · 2023-065AK

PAYLOAD ACTIVE UNKNOWN

§ Identity

Operator
Country
US
Launch date
2023-05-14
Launch site
AFETR
Launch vehicle
Mass (kg)
RCS (m²)

Purposes: comms

External: N2YO · Heavens-Above · Gunter

§ Orbital elements

Epoch: 2026-09-20T05:03:53.969184Z

Period
94.27 min
Inclination
43.0008°
Eccentricity
0.0000819
Mean motion
15.27575302 rev/d
Perigee alt
482.5 km
Apogee alt
483.6 km
Semi-major
6,861.2 km
B*
9.3340e-6
RAAN
208.2752°
Arg perigee
246.9755°
Mean anomaly
113.1011°
Rev number
18,618

§ Raw data

STARLINK-63121 56536U 23065AK  26263.21104131 -.00000005  00000+0  93340-5 0  99922 56536  43.0008 208.2752 0000819 246.9755 113.1011 15.27575302186183

JSON: /api/v1/satellites/56536 · /tle

For live sub-satellite position, see the globe view (requires WebGL).

§ Visibility from observer

Set your observer location to see the next 7 days of passes ≥ 10°. The values pass through the URL so the page stays shareable.

No JS? Fill the form by hand. The geolocation button needs JavaScript.